Regional Weather Roundup
Issued by NWS

Home | Current Version | Previous Version | Graphics & Text | Print | Product List | Glossary On
Versions: 1 2 3 4 5 6 7 8 9 10 11 12 13 14 15 16 17 18 19 20 21 22 23 24 25 26 27 28 29 30 31 32 33 34 35 36 37 38 39 40 41 42 43 44 45 46 47 48 49 50
000
ASUS43 KFSD 191010
RWRSD

WEATHER ROUNDUP FOR SOUTH DAKOTA
NATIONAL WEATHER SERVICE SIOUX FALLS SD
500 AM CDT SAT AUG 19 2017

NOTE: "FAIR" INDICATES FEW OR NO CLOUDS BELOW 12,000 FEET WITH NO
SIGNIFICANT WEATHER AND/OR OBSTRUCTIONS TO VISIBILITY.


SDZ001>005-009-010-012>017-191100-
NORTHWEST AND NORTH CENTRAL SOUTH DAKOTA

CITY           SKY/WX    TMP DP  RH WIND       PRES   REMARKS
BUFFALO          N/A     59  48  67 S7        29.80F
FAITH            N/A     56  52  86 S15       29.88F
MOBRIDGE       CLEAR     62  59  90 S9        29.88F
$$

SDZ012>016-024>037-041>051-057-063-072>074-191100-
SOUTHWEST AND SOUTH CENTRAL SOUTH DAKOTA

CITY           SKY/WX    TMP DP  RH WIND       PRES   REMARKS
RAPID CTY ARPT CLEAR     57  49  74 SE8       29.91F
PIERRE         CLEAR     63  54  72 S10       29.91F
CUSTER         CLEAR     54  40  59 NW5       30.06F
ELLSWORTH AFB  CLEAR     65  49  57 S9        29.89F
PHILIP         CLEAR     62  53  72 NE3       29.90F
PINE RIDGE     CLEAR     68  51  54 S20G26    29.92F
SPEARFISH      FAIR      75  41  29 SW15G22   29.91F
WINNER         FAIR      63  57  81 S8        29.95F
$$

SDZ004>011-016>023-039-040-191100-
NORTHEAST SOUTH DAKOTA

CITY           SKY/WX    TMP DP  RH WIND       PRES   REMARKS
ABERDEEN       CLEAR     50  50 100 S6        29.92S
WATERTOWN      FOG       54  54 100 SE3       29.93S VSB 1/4
BROOKINGS      PTCLDY    54  53  97 CALM      29.95S
SISSETON         N/A     56  55  97 SW5       29.89S
$$

SDZ017-020-022-023-036>040-048>070-191100-
SOUTHEAST SOUTH DAKOTA

CITY           SKY/WX    TMP DP  RH WIND       PRES   REMARKS
SIOUX FALLS    CLEAR     56  56 100 CALM      29.95R
HURON          CLEAR     58  56  93 S6        29.93F
CHAMBERLAIN    CLEAR     58  58  99 CALM      29.95F
MITCHELL       CLEAR     55  54  96 CALM      29.95S
$$

ABBREVIATIONS USED IN REMARKS
   TC - TEMPERATURE IN CELSIUS
  WCI - WIND CHILL INDEX
   HX - HEAT INDEX
  VSB - VISIBILITY




USA.gov is the U.S. government's official web portal to all federal, state and local government web resources and services.